CW9585 Weather Reports


Display with metric or nautical units.
time (UTC)temp
F
wind
direction
speed
MPH
gust
MPH
rain 1hr
in
rain 24hr
in
rain mn
in
humidity
%
barometer
mb
20260506165204 63 197 4.0 7.0 0.00 0.00 0.00 77 1020.5
20260506164705 63 204 3.0 7.0 0.00 0.00 0.00 78 1020.5
20260506163706 63 175 3.0 7.0 0.00 0.00 0.00 79 1020.6
20260506163204 63 196 3.0 7.0 0.00 0.00 0.00 79 1020.6
20260506162705 62 180 3.0 6.0 0.00 0.00 0.00 79 1020.6
20260506162204 62 200 3.0 6.0 0.00 0.00 0.00 79 1020.6
20260506161704 62 160 2.0 6.0 0.00 0.00 0.00 79 1020.6
20260506161204 62 176 2.0 4.0 0.00 0.00 0.00 80 1020.6
20260506160704 62 203 2.0 5.0 0.00 0.00 0.00 80 1020.6
20260506155705 62 207 2.0 5.0 0.00 0.00 0.00 81 1020.6
20260506155205 62 181 2.0 5.0 0.00 0.00 0.00 82 1020.6
20260506154704 61 119 3.0 5.0 0.00 0.00 0.00 82 1020.7
20260506154215 61 133 2.0 4.0 0.00 0.00 0.00 83 1020.7
20260506153705 61 126 2.0 5.0 0.00 0.00 0.00 83 1020.7
20260506153205 61 170 2.0 5.0 0.00 0.00 0.00 85 1020.6
20260506152704 60 124 2.0 5.0 0.00 0.00 0.00 86 1020.6
20260506152205 60 121 1.0 5.0 0.00 0.00 0.00 86 1020.6
20260506151706 60 130 0.0 5.0 0.00 0.00 0.00 88 1020.6
20260506151204 59 150 0.0 0.0 0.00 0.00 0.00 88 1020.6
20260506150205 58 41 0.0 0.0 0.00 0.00 0.00 90 1020.6
20260506145704 58 41 0.0 0.0 0.00 0.00 0.00 90 1020.7
20260506145205 58 5 0.0 0.0 0.00 0.00 0.00 90 1020.8
20260506144706 57 5 0.0 0.0 0.00 0.00 0.00 90 1020.8
20260506144204 57 5 0.0 0.0 0.00 0.00 0.00 90 1020.8
20260506143704 57 5 0.0 0.0 0.00 0.00 0.00 91 1020.8
20260506143204 56 5 0.0 0.0 0.00 0.00 0.00 91 1020.8
20260506142704 56 5 0.0 0.0 0.00 0.00 0.00 90 1020.8
20260506142204 56 5 0.0 0.0 0.00 0.00 0.00 90 1020.8
20260506141705 56 5 0.0 0.0 0.00 0.00 0.00 91 1020.6
20260506140205 56 5 0.0 0.0 0.00 0.00 0.00 90 1020.5
20260506135704 56 5 0.0 0.0 0.00 0.00 0.00 90 1020.5
20260506135205 55 5 0.0 0.0 0.00 0.00 0.00 90 1020.4
20260506134706 55 5 0.0 0.0 0.00 0.00 0.00 91 1020.3
20260506133704 55 5 0.0 0.0 0.00 0.00 0.00 91 1020.2
20260506133204 55 5 0.0 0.0 0.00 0.00 0.00 91 1020.1
20260506132704 55 5 0.0 0.0 0.00 0.00 0.00 90 1020.1
20260506132204 55 5 0.0 0.0 0.00 0.00 0.00 90 1020.1
20260506131705 55 5 0.0 0.0 0.00 0.00 0.00 90 1019.9
20260506131204 55 5 0.0 0.0 0.00 0.00 0.00 90 1019.8
20260506130705 55 24 0.0 0.0 0.00 0.00 0.00 91 1019.9
20260506124705 55 311 0.0 0.0 0.00 0.00 0.00 91 1019.8
20260506123705 55 311 0.0 0.0 0.00 0.00 0.00 91 1019.8
20260506123205 55 311 0.0 0.0 0.00 0.00 0.00 91 1019.7
20260506122705 55 311 0.0 0.0 0.00 0.00 0.00 91 1019.7
20260506121704 55 311 0.0 0.0 0.00 0.00 0.00 91 1019.7
20260506120705 55 311 0.0 0.0 0.00 0.00 0.00 91 1019.6
20260506120204 55 311 0.0 0.0 0.00 0.00 0.00 91 1019.6
20260506115705 55 311 0.0 0.0 0.00 0.00 0.00 91 1019.5
20260506115205 54 311 0.0 0.0 0.00 0.00 0.00 91 1019.5
20260506114705 55 311 0.0 0.0 0.00 0.00 0.00 91 1019.4
20260506114206 54 311 0.0 0.0 0.00 0.00 0.00 91 1019.4
20260506113705 54 311 0.0 0.0 0.00 0.00 0.00 91 1019.4
20260506113204 54 311 0.0 0.0 0.00 0.00 0.00 91 1019.4
20260506112704 54 311 0.0 0.0 0.00 0.00 0.00 90 1019.5
20260506111705 54 311 0.0 0.0 0.00 0.00 0.00 90 1019.5
20260506111206 54 311 0.0 0.0 0.00 0.00 0.00 90 1019.4
20260506110705 54 311 0.0 0.0 0.00 0.00 0.00 90 1019.4
20260506110204 54 311 0.0 0.0 0.00 0.00 0.00 90 1019.3
20260506105704 54 311 0.0 0.0 0.00 0.00 0.00 90 1019.4
20260506104704 54 311 0.0 0.0 0.00 0.00 0.00 90 1019.4
20260506104204 54 311 0.0 0.0 0.00 0.00 0.00 90 1019.3
20260506103704 54 311 0.0 3.0 0.00 0.00 0.00 90 1019.3
20260506103206 54 311 0.0 3.0 0.00 0.00 0.00 90 1019.4
20260506102705 54 311 1.0 3.0 0.00 0.00 0.00 90 1019.3
20260506102204 54 308 1.0 2.0 0.00 0.00 0.00 90 1019.4
20260506101704 54 19 0.0 2.0 0.00 0.00 0.00 90 1019.4
20260506101204 54 19 0.0 2.0 0.00 0.00 0.00 90 1019.3
20260506100704 54 19 0.0 2.0 0.00 0.00 0.00 90 1019.3
20260506100205 54 19 0.0 2.0 0.00 0.00 0.00 90 1019.3
20260506095704 54 19 0.0 3.0 0.00 0.00 0.00 90 1019.3
20260506095204 54 19 0.0 3.0 0.00 0.00 0.00 90 1019.4
20260506094705 54 19 1.0 3.0 0.00 0.00 0.00 90 1019.3
20260506094205 54 19 1.0 3.0 0.00 0.00 0.00 89 1019.3
20260506093704 54 19 1.0 2.0 0.00 0.00 0.00 89 1019.4
20260506093205 54 322 1.0 2.0 0.00 0.00 0.00 89 1019.5
20260506092704 54 322 1.0 2.0 0.00 0.00 0.00 89 1019.5
20260506092205 55 322 0.0 2.0 0.00 0.00 0.00 89 1019.5
20260506091704 55 322 0.0 2.0 0.00 0.00 0.00 89 1019.5
20260506090704 55 322 0.0 2.0 0.00 0.00 0.00 88 1019.3
20260506085704 55 322 0.0 0.0 0.00 0.00 0.00 88 1019.3
20260506085205 55 322 0.0 0.0 0.00 0.00 0.00 88 1019.3
20260506084704 55 322 0.0 0.0 0.00 0.00 0.00 87 1019.2
20260506084204 56 322 0.0 0.0 0.00 0.00 0.00 87 1019.2
20260506083204 56 322 0.0 0.0 0.00 0.00 0.00 87 1019.3
20260506082705 56 322 0.0 0.0 0.00 0.00 0.00 87 1019.2
20260506082204 56 322 0.0 0.0 0.00 0.00 0.00 87 1019.2
20260506081704 56 322 0.0 0.0 0.00 0.00 0.00 86 1019.2
20260506081204 56 322 0.0 0.0 0.00 0.00 0.00 86 1019.2
20260506080705 56 322 0.0 0.0 0.00 0.00 0.00 86 1019.2
20260506080205 56 322 0.0 0.0 0.00 0.00 0.00 86 1019.2
20260506073205 57 322 0.0 1.0 0.00 0.00 0.00 85 1019.0
20260506072704 58 322 0.0 2.0 0.00 0.00 0.00 85 1018.9
20260506072205 58 322 0.0 2.0 0.00 0.00 0.00 85 1019.0
20260506071705 58 322 0.0 2.0 0.00 0.00 0.00 85 1019.0
20260506071204 58 322 0.0 2.0 0.00 0.00 0.00 84 1018.9
20260506070705 58 322 0.0 1.0 0.00 0.00 0.00 84 1018.9
20260506070205 58 322 0.0 1.0 0.00 0.00 0.00 84 1018.8
20260506062205 59 322 0.0 0.0 0.00 0.00 0.00 82 1018.6
20260506061204 58 322 0.0 0.0 0.00 0.00 0.00 81 1018.5
20260506060704 58 322 0.0 0.0 0.00 0.00 0.00 81 1018.5
20260506060205 58 322 0.0 0.0 0.00 0.00 0.00 81 1018.5
20260506051206 59 322 0.0 0.0 0.00 0.00 0.00 82 1018.3
20260506050704 59 322 0.0 0.0 0.00 0.00 0.00 82 1018.3
20260506050206 58 322 0.0 0.0 0.00 0.00 0.00 82 1018.3
20260506043705 59 322 0.0 2.0 0.00 0.00 0.00 82 1018.0
20260506043204 59 322 0.0 2.0 0.00 0.00 0.00 82 1017.9
20260506042705 59 315 0.0 2.0 0.00 0.00 0.00 82 1017.9
20260506042205 59 315 0.0 3.0 0.00 0.00 0.00 82 1017.8
20260506041205 59 28 2.0 4.0 0.00 0.00 0.00 82 1017.9
20260506040704 59 0 2.0 4.0 0.00 0.00 0.00 82 1017.8
20260506040205 59 318 1.0 2.0 0.00 0.00 0.00 82 1017.7
20260506035205 59 344 0.0 3.0 0.00 0.00 0.00 82 1017.6
20260506034704 59 341 1.0 3.0 0.00 0.00 0.00 82 1017.5
20260506033704 59 338 1.0 5.0 0.00 0.00 0.00 81 1017.3
20260506033206 59 5 2.0 5.0 0.00 0.00 0.00 81 1017.3
20260506032705 59 323 2.0 5.0 0.00 0.00 0.00 81 1017.3
20260506031705 59 355 2.0 4.0 0.00 0.00 0.00 81 1017.0
20260506031205 59 13 2.0 4.0 0.00 0.00 0.00 81 1017.0
20260506030704 59 28 1.0 4.0 0.00 0.00 0.00 81 1017.0
20260506030205 59 28 1.0 3.0 0.00 0.00 0.00 81 1016.8
20260506025705 59 43 1.0 3.0 0.00 0.00 0.00 81 1016.8
20260506025204 59 339 1.0 5.0 0.00 0.00 0.00 81 1016.8
20260506024704 59 15 1.0 5.0 0.00 0.00 0.00 81 1016.7
20260506024206 59 35 1.0 7.0 0.00 0.00 0.00 81 1016.7
20260506023705 59 88 2.0 7.0 0.00 0.00 0.00 81 1016.7
20260506023205 59 74 3.0 7.0 0.00 0.00 0.00 80 1016.6
20260506022204 60 63 2.0 6.0 0.00 0.00 0.00 80 1016.7
20260506021704 60 78 2.0 7.0 0.00 0.00 0.00 80 1016.7
20260506020705 60 86 3.0 7.0 0.00 0.00 0.00 80 1016.7
20260506015705 60 45 2.0 5.0 0.00 0.00 0.00 79 1016.7
20260506014204 60 82 2.0 7.0 0.00 0.00 0.00 79 1016.6
20260506013704 60 96 3.0 9.0 0.00 0.00 0.00 79 1016.6
20260506012704 60 113 3.0 9.0 0.00 0.00 0.00 78 1016.6
20260506012205 60 79 3.0 6.0 0.00 0.00 0.00 78 1016.6
20260506011704 60 59 3.0 6.0 0.00 0.00 0.00 78 1016.5
20260506010204 61 74 2.0 6.0 0.00 0.00 0.00 78 1016.4
20260506005704 61 111 3.0 6.0 0.00 0.00 0.00 77 1016.4
20260506005204 61 107 2.0 6.0 0.00 0.00 0.00 77 1016.4
20260506004705 61 115 1.0 5.0 0.00 0.00 0.00 77 1016.4
20260506004205 61 167 1.0 5.0 0.00 0.00 0.00 77 1016.3
20260506003704 61 101 1.0 4.0 0.00 0.00 0.00 76 1016.4
20260506003205 61 217 2.0 6.0 0.00 0.00 0.00 76 1016.3
20260506002705 61 186 2.0 6.0 0.00 0.00 0.00 76 1016.3
20260506002204 61 223 2.0 6.0 0.00 0.00 0.00 76 1016.3
20260506001704 61 213 2.0 5.0 0.00 0.00 0.00 75 1016.3
20260506001204 62 190 2.0 6.0 0.00 0.00 0.00 75 1016.3
20260506000205 62 224 3.0 6.0 0.00 0.00 0.00 74 1016.2
20260505235704 62 163 2.0 6.0 0.00 0.00 0.00 74 1016.2
20260505235205 62 190 2.0 7.0 0.00 0.00 0.00 75 1016.1
20260505234704 62 188 2.0 7.0 0.00 0.00 0.00 75 1016.1
20260505233705 62 196 3.0 8.0 0.00 0.00 0.00 76 1016.2
20260505233205 61 223 4.0 8.0 0.00 0.00 0.00 76 1016.1
20260505232704 61 274 3.0 8.0 0.00 0.00 0.00 76 1016.1
20260505232205 61 246 3.0 7.0 0.00 0.00 0.00 77 1016.1
20260505231704 61 232 3.0 7.0 0.00 0.00 0.00 78 1016.1
20260505231204 61 214 3.0 7.0 0.00 0.00 0.00 78 1016.2
20260505230704 61 250 3.0 8.0 0.00 0.00 0.00 79 1016.3
20260505225204 60 260 4.0 8.0 0.00 0.00 0.00 79 1016.3
20260505224704 60 225 3.0 7.0 0.00 0.00 0.00 80 1016.3
20260505224204 60 248 3.0 10.0 0.00 0.00 0.00 81 1016.3
20260505223705 60 188 4.0 10.0 0.00 0.00 0.00 82 1016.4
20260505223205 60 251 5.0 10.0 0.00 0.00 0.00 82 1016.5
20260505222705 60 263 4.0 8.0 0.00 0.00 0.00 83 1016.5
20260505222205 60 172 4.0 8.0 0.00 0.00 0.00 84 1016.5
20260505220705 60 194 4.0 8.0 0.00 0.00 0.00 83 1016.6
20260505220205 59 203 4.0 8.0 0.00 0.00 0.00 83 1016.7
20260505214705 60 229 4.0 8.0 0.00 0.00 0.00 82 1016.6
20260505214204 60 217 3.0 6.0 0.00 0.00 0.00 81 1016.7
20260505213704 60 197 2.0 7.0 0.00 0.00 0.00 81 1016.8
20260505213204 60 187 3.0 7.0 0.00 0.00 0.00 81 1016.8
20260505212204 60 213 4.0 7.0 0.00 0.00 0.00 80 1016.9
20260505211705 60 191 3.0 7.0 0.00 0.00 0.00 80 1016.9
20260505211204 60 210 2.0 6.0 0.00 0.00 0.00 81 1016.8
20260505205205 59 218 3.0 7.0 0.00 0.00 0.00 84 1016.8
20260505204704 59 244 3.0 8.0 0.00 0.00 0.00 85 1016.7
20260505204205 59 177 4.0 8.0 0.00 0.00 0.00 85 1016.8
20260505203705 59 257 5.0 8.0 0.00 0.00 0.00 84 1016.8
20260505203205 59 240 4.0 10.0 0.00 0.00 0.00 84 1016.9
20260505202704 59 212 4.0 10.0 0.00 0.00 0.00 84 1016.9
20260505202205 59 209 3.0 7.0 0.00 0.00 0.00 84 1016.9
20260505201705 59 122 3.0 10.0 0.00 0.00 0.00 84 1016.9
20260505201204 59 196 3.0 10.0 0.00 0.00 0.00 84 1016.9
20260505200704 59 229 4.0 10.0 0.00 0.00 0.00 83 1017.0
20260505200205 59 220 5.0 8.0 0.00 0.00 0.00 83 1017.1
20260505195206 59 231 4.0 8.0 0.00 0.00 0.00 84 1017.0
20260505194705 58 206 4.0 8.0 0.00 0.00 0.00 83 1017.0
20260505194204 58 191 4.0 11.0 0.00 0.00 0.00 83 1017.1
20260505193205 58 184 4.0 11.0 0.00 0.00 0.00 83 1017.2
20260505192705 58 207 4.0 11.0 0.00 0.00 0.00 83 1017.1
20260505191705 58 228 5.0 12.0 0.00 0.00 0.00 82 1017.2
20260505191204 58 189 5.0 12.0 0.00 0.00 0.00 81 1017.2
20260505190705 58 186 5.0 12.0 0.00 0.00 0.00 81 1017.2
20260505190206 58 213 4.0 9.0 0.00 0.00 0.00 81 1017.2
20260505185704 59 218 4.0 8.0 0.00 0.00 0.00 81 1017.2
20260505185205 59 215 4.0 8.0 0.00 0.00 0.00 80 1017.0
20260505184704 59 224 5.0 10.0 0.00 0.00 0.00 80 1017.0
20260505184205 59 224 5.0 10.0 0.00 0.00 0.00 80 1017.0
20260505183704 59 258 4.0 9.0 0.00 0.00 0.00 79 1017.1
20260505183206 59 158 4.0 9.0 0.00 0.00 0.00 79 1017.1
20260505182205 59 242 5.0 11.0 0.00 0.00 0.00 79 1016.9
20260505181205 60 193 5.0 11.0 0.00 0.00 0.00 78 1016.8
20260505180204 60 207 5.0 10.0 0.00 0.00 0.00 77 1016.7
20260505175705 60 215 5.0 9.0 0.00 0.00 0.00 76 1016.7
20260505174704 59 191 4.0 8.0 0.00 0.00 0.00 75 1016.6
20260505174205 59 173 4.0 8.0 0.00 0.00 0.00 75 1016.5
20260505173205 58 192 4.0 7.0 0.00 0.00 0.00 76 1016.5
20260505172705 58 196 4.0 7.0 0.00 0.00 0.00 76 1016.5
20260505171705 58 220 4.0 7.0 0.00 0.00 0.00 76 1016.5
20260505171204 58 195 4.0 7.0 0.00 0.00 0.00 76 1016.6
20260505170705 58 179 4.0 7.0 0.00 0.00 0.00 76 1016.6
20260505170205 58 197 4.0 7.0 0.00 0.00 0.00 75 1016.6
20260505165705 58 210 4.0 7.0 0.00 0.00 0.00 76 1016.5